Weather History for Ekofisk, Norway

Change the Weather History Date:

Monday, February 18, 2013

  Actual Average Record
Temperature  
Mean Temperature 40 °F -  
Max Temperature 42 °F 42 °F 48 °F (1998)
Min Temperature 39 °F 37 °F 33 °F (2003)
Degree Days  
Heating Degree Days 24    
Moisture  
Dew Point 36 °F    
Average Humidity 86    
Maximum Humidity 93    
Minimum Humidity 73    
Precipitation  
Precipitation 0.00 in - - ()
Sea Level Pressure  
Sea Level Pressure 30.12 in    
Wind  
Wind Speed 17 mph ()    
Max Wind Speed 24 mph    
Max Gust Speed -    
Visibility 6.6 miles    
Events      
Averages and records for this station are not official NWS values.
T = Trace of Precipitation, MM = Missing Value Source: Averaged Metar Reports

Daily Weather History Graph

Daily Weather History Graph

Search for Another Location

Airport:

Trip Planner

Search our weather history database for the weather conditions in past years. The results will help you decide how hot, cold, wet, or windy it might be!

Date:

Astronomy

Feb. 18, 2013 Rise Set
Actual Time 8:06 AM CET 5:56 PM CET
Civil Twilight 7:27 AM CET 6:35 PM CET
Nautical Twilight 6:43 AM CET 7:19 PM CET
Astronomical Twilight 6:00 AM CET 8:02 PM CET
Moon 10:57 AM CET (2/18) 3:04 AM CET (2/18)
Length of Visible Light 11h 07m
Length of Day
9h 49m
First Quarter, 56% of the Moon is Illuminated
Feb 18
First Quarter
Feb 25
Full
Mar 4
Last Quarter
Mar 11
New
Mar 19
First Quarter

Hourly Weather History & Observations

Time (CET) Temp. Windchill Dew Point Humidity Pressure Visibility Wind Dir Wind Speed Gust Speed Precip Events Conditions
12:20 AM 39.2 °F 30.2 °F 37.4 °F 93% 30.18 in 6.2 mi SSW 17.3 mph - N/A   Mostly Cloudy
12:50 AM 39.2 °F 29.8 °F 37.4 °F 93% 30.18 in 6.2 mi SW 18.4 mph - N/A   Mostly Cloudy
1:00 AM 40 °F - 37 °F 83% 30.21 in 31 mi SW 13.4 mph - -   Partly Cloudy
1:20 AM 39.2 °F 29.8 °F 37.4 °F 93% 30.18 in 6.2 mi SW 18.4 mph - N/A   Mostly Cloudy
1:50 AM 39.2 °F 29.8 °F 35.6 °F 87% 30.18 in 6.2 mi SW 18.4 mph - N/A   Mostly Cloudy
2:20 AM 39.2 °F 29.8 °F 35.6 °F 87% 30.18 in 6.2 mi SW 18.4 mph - N/A   Mostly Cloudy
2:50 AM 39.2 °F 29.8 °F 35.6 °F 87% 30.18 in 6.2 mi SW 18.4 mph - N/A   Mostly Cloudy
3:20 AM 39.2 °F 29.8 °F 35.6 °F 87% 30.15 in 6.2 mi SW 18.4 mph - N/A   Mostly Cloudy
3:50 AM 39.2 °F 29.6 °F 35.6 °F 87% 30.15 in 6.2 mi SW 19.6 mph - N/A   Mostly Cloudy
4:20 AM 39.2 °F 29.8 °F 35.6 °F 87% 30.15 in 6.2 mi SW 18.4 mph - N/A   Scattered Clouds
4:50 AM 39.2 °F 30.2 °F 35.6 °F 87% 30.15 in 6.2 mi SW 17.3 mph - N/A   Scattered Clouds
5:20 AM 39.2 °F 30.2 °F 35.6 °F 87% 30.15 in 6.2 mi SSW 17.3 mph - N/A   Mostly Cloudy
5:50 AM 39.2 °F 29.8 °F 35.6 °F 87% 30.15 in 6.2 mi SSW 18.4 mph - N/A   Mostly Cloudy
6:20 AM 39.2 °F 30.2 °F 35.6 °F 87% 30.15 in 6.2 mi SW 17.3 mph - N/A   Mostly Cloudy
6:50 AM 39.2 °F 30.2 °F 35.6 °F 87% 30.15 in 6.2 mi SW 17.3 mph - N/A   Mostly Cloudy
7:00 AM 39 °F - 35 °F 79% 30.17 in 12 mi SW 13.4 mph - -   Partly Cloudy
7:20 AM 39.2 °F 29.8 °F 35.6 °F 87% 30.15 in 6.2 mi SW 18.4 mph - N/A   Mostly Cloudy
7:50 AM 39.2 °F 30.2 °F 35.6 °F 87% 30.15 in 6.2 mi SW 17.3 mph - N/A   Mostly Cloudy
8:20 AM 39.2 °F 30.5 °F 35.6 °F 87% 30.15 in 6.2 mi SW 16.1 mph - N/A   Mostly Cloudy
9:20 AM 39.2 °F 30.5 °F 35.6 °F 87% 30.15 in 6.2 mi SW 16.1 mph - N/A   Mostly Cloudy
9:50 AM 41.0 °F 32.5 °F 35.6 °F 81% 30.15 in 6.2 mi WSW 17.3 mph - N/A   Mostly Cloudy
10:20 AM 41.0 °F 32.8 °F 35.6 °F 81% 30.15 in 6.2 mi SW 16.1 mph - N/A   Mostly Cloudy
10:50 AM 41.0 °F 32.2 °F 35.6 °F 81% 30.15 in 6.2 mi SW 18.4 mph - N/A   Mostly Cloudy
11:20 AM 41.0 °F 32.2 °F 35.6 °F 81% 30.15 in 6.2 mi WSW 18.4 mph - N/A   Mostly Cloudy
11:50 AM 39.2 °F 29.8 °F 35.6 °F 87% 30.15 in 6.2 mi WSW 18.4 mph - N/A   Mostly Cloudy
12:20 PM 39.2 °F 29.8 °F 35.6 °F 87% 30.15 in 6.2 mi WSW 18.4 mph - N/A   Mostly Cloudy
12:50 PM 42.8 °F 34.5 °F 35.6 °F 76% 30.15 in 6.2 mi WSW 18.4 mph - N/A   Mostly Cloudy
1:00 PM 41 °F - 35 °F 73% 30.16 in 12 mi WSW 13.4 mph - -   Partly Cloudy
1:20 PM 41.0 °F 32.8 °F 35.6 °F 81% 30.15 in 6.2 mi WSW 16.1 mph - N/A   Mostly Cloudy
1:50 PM 41.0 °F 32.5 °F 35.6 °F 81% 30.12 in 6.2 mi West 17.3 mph - N/A   Mostly Cloudy
2:20 PM 41.0 °F 32.5 °F 35.6 °F 81% 30.12 in 6.2 mi West 17.3 mph - N/A   Mostly Cloudy
2:50 PM 41.0 °F 32.2 °F 35.6 °F 81% 30.12 in 6.2 mi WSW 18.4 mph - N/A   Mostly Cloudy
3:20 PM 41.0 °F 31.9 °F 35.6 °F 81% 30.12 in 6.2 mi West 19.6 mph - N/A   Mostly Cloudy
3:50 PM 41.0 °F 31.9 °F 35.6 °F 81% 30.09 in 6.2 mi West 19.6 mph - N/A   Mostly Cloudy
4:20 PM 39.2 °F 29.6 °F 35.6 °F 87% 30.09 in 6.2 mi West 19.6 mph - N/A   Mostly Cloudy
4:50 PM 39.2 °F 29.6 °F 35.6 °F 87% 30.06 in 6.2 mi West 19.6 mph - N/A   Mostly Cloudy
5:20 PM 41.0 °F 31.4 °F 35.6 °F 81% 30.06 in 6.2 mi West 21.9 mph - N/A   Mostly Cloudy
5:50 PM 41.0 °F 31.6 °F 35.6 °F 81% 30.09 in 6.2 mi West 20.7 mph - N/A   Mostly Cloudy
6:20 PM 41.0 °F 31.4 °F 35.6 °F 81% 30.06 in 6.2 mi West 21.9 mph - N/A   Mostly Cloudy
6:50 PM 41.0 °F 31.4 °F 35.6 °F 81% 30.06 in 6.2 mi West 21.9 mph - N/A   Mostly Cloudy
7:00 PM 40 °F - 36 °F 81% 30.10 in 12 mi West 17.9 mph - -   Partly Cloudy
7:20 PM 39.2 °F 29.0 °F 37.4 °F 93% 30.06 in 6.2 mi West 21.9 mph - N/A   Mostly Cloudy
7:50 PM 39.2 °F 29.0 °F 37.4 °F 93% 30.06 in 6.2 mi West 21.9 mph - N/A   Mostly Cloudy
8:20 PM 39.2 °F 28.7 °F 37.4 °F 93% 30.06 in 6.2 mi West 23.0 mph - N/A   Mostly Cloudy
8:50 PM 39.2 °F 28.5 °F 37.4 °F 93% 30.06 in 6.2 mi West 24.2 mph - N/A   Mostly Cloudy
9:20 PM 39.2 °F 28.5 °F 37.4 °F 93% 30.06 in 6.2 mi West 24.2 mph - N/A   Mostly Cloudy
9:50 PM 39.2 °F 29.0 °F 37.4 °F 93% 30.06 in 6.2 mi West 21.9 mph - N/A   Mostly Cloudy
10:20 PM 39.2 °F 28.7 °F 37.4 °F 93% 30.06 in 6.2 mi WNW 23.0 mph - N/A   Mostly Cloudy
10:50 PM 39.2 °F 29.3 °F 37.4 °F 93% 30.06 in 6.2 mi WNW 20.7 mph - N/A   Mostly Cloudy
11:20 PM 39.2 °F 28.7 °F 37.4 °F 93% 30.04 in 6.2 mi WNW 23.0 mph - N/A   Mostly Cloudy